Time,TemperatureF,DewpointF,PressureIn,WindDirection,WindDirectionDegrees,WindSpeedMPH,WindSpeedGustMPH,Humidity,HourlyPrecipIn,Conditions,Clouds,dailyrainin,SolarRadiationWatts/m^2,SoftwareType,DateUTC
2014-11-24 00:03:00,40.3,37.3,29.46,WNW,302,6.0,11.0,89,0.00,,,0.00,0,Wunderground v.1.15,2014-11-24 06:03:00,
2014-11-24 00:08:00,40.4,37.4,29.46,WNW,302,6.0,11.0,89,0.00,,,0.00,0,Wunderground v.1.15,2014-11-24 06:08:00,
2014-11-24 00:14:00,40.5,37.5,29.46,NW,304,7.0,14.0,89,0.00,,,0.00,0,Wunderground v.1.15,2014-11-24 06:14:00,
2014-11-24 00:20:00,40.7,37.4,29.46,NW,306,8.0,14.0,88,0.00,,,0.00,0,Wunderground v.1.15,2014-11-24 06:20:00,
2014-11-24 00:26:00,40.7,37.4,29.46,NW,309,9.0,14.0,88,0.00,,,0.00,0,Wunderground v.1.15,2014-11-24 06:26:00,
2014-11-24 00:32:00,40.8,37.2,29.46,WNW,302,8.0,8.0,87,0.00,,,0.00,0,Wunderground v.1.15,2014-11-24 06:32:00,
2014-11-24 00:38:00,40.9,37.3,29.46,NW,306,7.0,13.0,87,0.00,,,0.00,0,Wunderground v.1.15,2014-11-24 06:38:00,
2014-11-24 00:43:00,40.9,37.3,29.46,WNW,299,7.0,14.0,87,0.00,,,0.00,0,Wunderground v.1.15,2014-11-24 06:43:00,
2014-11-24 00:49:00,40.9,37.3,29.47,WNW,302,7.0,14.0,87,0.00,,,0.00,0,Wunderground v.1.15,2014-11-24 06:49:00,
2014-11-24 00:54:00,41.0,37.1,29.47,NW,310,8.0,8.0,86,0.00,,,0.00,0,Wunderground v.1.15,2014-11-24 06:54:00,
2014-11-24 01:01:00,41.1,37.2,29.48,WNW,299,8.0,8.0,86,0.00,,,0.00,0,Wunderground v.1.15,2014-11-24 07:01:00,
2014-11-24 01:06:00,41.2,37.0,29.48,WNW,297,7.0,9.0,85,0.00,,,0.00,0,Wunderground v.1.15,2014-11-24 07:06:00,
2014-11-24 01:11:00,41.2,37.0,29.48,WNW,294,7.0,11.0,85,0.00,,,0.00,0,Wunderground v.1.15,2014-11-24 07:11:00,
2014-11-24 01:16:00,41.2,36.7,29.48,WNW,294,9.0,18.0,84,0.00,,,0.00,0,Wunderground v.1.15,2014-11-24 07:16:00,
2014-11-24 01:22:00,41.3,36.5,29.49,NW,309,10.0,13.0,83,0.00,,,0.00,0,Wunderground v.1.15,2014-11-24 07:22:00,
2014-11-24 01:28:00,41.3,36.2,29.49,West,279,11.0,14.0,82,0.00,,,0.00,0,Wunderground v.1.15,2014-11-24 07:28:00,
2014-11-24 01:33:00,41.3,36.2,29.49,WNW,301,11.0,12.0,82,0.00,,,0.00,0,Wunderground v.1.15,2014-11-24 07:33:00,
2014-11-24 01:38:00,41.2,36.1,29.49,West,268,10.0,13.0,82,0.00,,,0.00,0,Wunderground v.1.15,2014-11-24 07:38:00,
2014-11-24 01:44:00,41.2,36.1,29.49,WNW,286,10.0,11.0,82,0.00,,,0.00,0,Wunderground v.1.15,2014-11-24 07:44:00,
2014-11-24 01:49:00,41.2,36.1,29.49,WNW,295,9.0,11.0,82,0.00,,,0.00,0,Wunderground v.1.15,2014-11-24 07:49:00,
2014-11-24 01:54:00,41.1,36.0,29.49,West,265,8.0,10.0,82,0.00,,,0.00,0,Wunderground v.1.15,2014-11-24 07:54:00,
2014-11-24 02:01:00,40.8,35.4,29.50,WNW,300,10.0,14.0,81,0.00,,,0.00,0,Wunderground v.1.15,2014-11-24 08:01:00,
2014-11-24 02:06:00,40.6,34.9,29.50,WNW,295,13.0,14.0,80,0.00,,,0.00,0,Wunderground v.1.15,2014-11-24 08:06:00,
2014-11-24 02:12:00,40.3,34.0,29.51,West,264,14.0,14.0,78,0.00,,,0.00,0,Wunderground v.1.15,2014-11-24 08:12:00,
2014-11-24 02:17:00,40.0,32.7,29.51,West,278,15.0,19.0,75,0.00,,,0.00,0,Wunderground v.1.15,2014-11-24 08:17:00,
2014-11-24 02:22:00,39.7,31.8,29.52,WNW,293,16.0,22.0,73,0.00,,,0.00,0,Wunderground v.1.15,2014-11-24 08:22:00,
2014-11-24 02:27:00,39.3,31.0,29.52,NW,304,16.0,26.0,72,0.00,,,0.00,0,Wunderground v.1.15,2014-11-24 08:27:00,
2014-11-24 02:33:00,38.8,29.8,29.53,NW,309,16.0,23.0,70,0.00,,,0.00,0,Wunderground v.1.15,2014-11-24 08:33:00,
2014-11-24 02:39:00,38.2,28.9,29.54,WNW,288,18.0,23.0,69,0.00,,,0.00,0,Wunderground v.1.15,2014-11-24 08:39:00,
2014-11-24 02:44:00,37.7,28.8,29.54,WNW,296,16.0,25.0,70,0.00,,,0.00,0,Wunderground v.1.15,2014-11-24 08:44:00,
2014-11-24 02:50:00,37.3,28.8,29.55,WNW,292,14.0,25.0,71,0.00,,,0.00,0,Wunderground v.1.15,2014-11-24 08:50:00,
2014-11-24 02:55:00,37.1,28.6,29.55,NNW,327,14.0,21.0,71,0.00,,,0.00,0,Wunderground v.1.15,2014-11-24 08:55:00,
2014-11-24 03:01:00,36.8,28.6,29.55,WNW,294,14.0,14.0,72,0.00,,,0.00,0,Wunderground v.1.15,2014-11-24 09:01:00,
2014-11-24 03:07:00,36.5,28.7,29.55,WNW,286,11.0,18.0,73,0.00,,,0.00,0,Wunderground v.1.15,2014-11-24 09:07:00,
2014-11-24 03:12:00,36.1,28.6,29.56,WNW,285,11.0,23.0,74,0.00,,,0.00,0,Wunderground v.1.15,2014-11-24 09:12:00,
2014-11-24 03:18:00,35.9,28.4,29.56,WNW,290,13.0,23.0,74,0.00,,,0.00,0,Wunderground v.1.15,2014-11-24 09:18:00,
2014-11-24 03:24:00,35.8,28.0,29.57,WNW,299,13.0,19.0,73,0.00,,,0.00,0,Wunderground v.1.15,2014-11-24 09:24:00,
2014-11-24 03:30:00,35.6,28.1,29.57,WNW,286,11.0,19.0,74,0.00,,,0.00,0,Wunderground v.1.15,2014-11-24 09:30:00,
2014-11-24 03:36:00,35.5,28.0,29.57,WNW,287,11.0,20.0,74,0.00,,,0.00,0,Wunderground v.1.15,2014-11-24 09:36:00,
2014-11-24 03:41:00,35.3,27.8,29.57,West,280,11.0,13.0,74,0.00,,,0.00,0,Wunderground v.1.15,2014-11-24 09:41:00,
2014-11-24 03:47:00,35.2,28.1,29.57,WNW,299,10.0,15.0,75,0.00,,,0.00,0,Wunderground v.1.15,2014-11-24 09:47:00,
2014-11-24 03:52:00,35.1,28.0,29.57,WNW,292,12.0,13.0,75,0.00,,,0.00,0,Wunderground v.1.15,2014-11-24 09:52:00,
2014-11-24 03:58:00,35.1,28.0,29.57,WNW,303,13.0,15.0,75,0.00,,,0.00,0,Wunderground v.1.15,2014-11-24 09:58:00,
2014-11-24 04:03:00,35.2,27.7,29.57,WNW,295,13.0,24.0,74,0.00,,,0.00,0,Wunderground v.1.15,2014-11-24 10:03:00,
2014-11-24 04:09:00,35.2,28.1,29.58,West,278,12.0,24.0,75,0.00,,,0.00,0,Wunderground v.1.15,2014-11-24 10:09:00,
2014-11-24 04:15:00,35.1,28.0,29.58,West,269,11.0,17.0,75,0.00,,,0.00,0,Wunderground v.1.15,2014-11-24 10:15:00,
2014-11-24 04:21:00,35.0,27.9,29.59,WNW,286,12.0,20.0,75,0.00,,,0.00,0,Wunderground v.1.15,2014-11-24 10:21:00,
2014-11-24 04:26:00,34.8,27.7,29.59,WNW,286,12.0,20.0,75,0.00,,,0.00,0,Wunderground v.1.15,2014-11-24 10:26:00,
2014-11-24 04:32:00,34.7,27.9,29.59,WNW,288,12.0,13.0,76,0.00,,,0.00,0,Wunderground v.1.15,2014-11-24 10:32:00,
2014-11-24 04:37:00,34.5,27.4,29.59,WNW,300,12.0,14.0,75,0.00,,,0.00,0,Wunderground v.1.15,2014-11-24 10:37:00,
2014-11-24 04:43:00,34.4,27.6,29.59,WNW,293,11.0,15.0,76,0.00,,,0.00,0,Wunderground v.1.15,2014-11-24 10:43:00,
2014-11-24 04:50:00,34.1,27.3,29.60,WNW,284,10.0,15.0,76,0.00,,,0.00,0,Wunderground v.1.15,2014-11-24 10:50:00,
2014-11-24 04:55:00,33.9,27.4,29.60,WNW,296,10.0,11.0,77,0.00,,,0.00,0,Wunderground v.1.15,2014-11-24 10:55:00,
2014-11-24 05:01:00,33.9,27.4,29.59,West,275,10.0,14.0,77,0.00,,,0.00,0,Wunderground v.1.15,2014-11-24 11:01:00,
2014-11-24 05:07:00,33.9,27.1,29.60,WNW,286,13.0,18.0,76,0.00,,,0.00,0,Wunderground v.1.15,2014-11-24 11:07:00,
2014-11-24 05:13:00,33.9,27.1,29.60,WNW,296,11.0,12.0,76,0.00,,,0.00,0,Wunderground v.1.15,2014-11-24 11:13:00,
2014-11-24 05:19:00,33.9,26.8,29.61,WNW,288,11.0,19.0,75,0.00,,,0.00,0,Wunderground v.1.15,2014-11-24 11:19:00,
2014-11-24 05:26:00,33.9,27.1,29.61,West,277,11.0,13.0,76,0.00,,,0.00,0,Wunderground v.1.15,2014-11-24 11:26:00,
2014-11-24 05:31:00,34.0,26.9,29.61,WNW,284,12.0,19.0,75,0.00,,,0.00,0,Wunderground v.1.15,2014-11-24 11:31:00,
2014-11-24 05:36:00,34.0,26.6,29.61,WNW,300,12.0,15.0,74,0.00,,,0.00,0,Wunderground v.1.15,2014-11-24 11:36:00,
2014-11-24 05:42:00,34.0,26.9,29.61,WNW,303,10.0,15.0,75,0.00,,,0.00,0,Wunderground v.1.15,2014-11-24 11:42:00,
2014-11-24 05:47:00,34.1,27.0,29.62,WNW,290,9.0,13.0,75,0.00,,,0.00,0,Wunderground v.1.15,2014-11-24 11:47:00,
2014-11-24 05:52:00,34.0,26.9,29.62,WNW,288,9.0,15.0,75,0.00,,,0.00,0,Wunderground v.1.15,2014-11-24 11:52:00,
2014-11-24 05:57:00,34.1,27.0,29.62,WNW,296,8.0,11.0,75,0.00,,,0.00,0,Wunderground v.1.15,2014-11-24 11:57:00,
2014-11-24 06:03:00,34.1,27.3,29.62,WNW,293,8.0,14.0,76,0.00,,,0.00,0,Wunderground v.1.15,2014-11-24 12:03:00,
2014-11-24 06:09:00,34.2,27.4,29.63,WNW,298,9.0,16.0,76,0.00,,,0.00,0,Wunderground v.1.15,2014-11-24 12:09:00,
2014-11-24 06:15:00,34.2,27.4,29.63,WNW,296,8.0,14.0,76,0.00,,,0.00,0,Wunderground v.1.15,2014-11-24 12:15:00,
2014-11-24 06:20:00,34.2,27.7,29.63,WNW,302,7.0,14.0,77,0.00,,,0.00,0,Wunderground v.1.15,2014-11-24 12:20:00,
2014-11-24 06:26:00,34.3,27.5,29.64,WNW,285,7.0,12.0,76,0.00,,,0.00,0,Wunderground v.1.15,2014-11-24 12:26:00,
2014-11-24 06:31:00,34.3,27.8,29.64,WNW,282,6.0,6.0,77,0.00,,,0.00,0,Wunderground v.1.15,2014-11-24 12:31:00,
2014-11-24 06:37:00,34.3,27.5,29.64,West,279,8.0,11.0,76,0.00,,,0.00,0,Wunderground v.1.15,2014-11-24 12:37:00,
2014-11-24 06:43:00,34.3,27.5,29.65,WNW,287,8.0,10.0,76,0.00,,,0.00,0,Wunderground v.1.15,2014-11-24 12:43:00,
2014-11-24 06:48:00,34.3,27.5,29.65,West,273,6.0,10.0,76,0.00,,,0.00,0,Wunderground v.1.15,2014-11-24 12:48:00,
2014-11-24 06:53:00,34.3,27.5,29.66,West,273,5.0,7.0,76,0.00,,,0.00,0,Wunderground v.1.15,2014-11-24 12:53:00,
2014-11-24 06:59:00,34.4,27.6,29.66,West,274,5.0,9.0,76,0.00,,,0.00,0,Wunderground v.1.15,2014-11-24 12:59:00,
2014-11-24 07:05:00,34.4,27.6,29.66,West,272,5.0,8.0,76,0.00,,,0.00,0,Wunderground v.1.15,2014-11-24 13:05:00,
2014-11-24 07:10:00,34.4,27.6,29.66,West,270,6.0,9.0,76,0.00,,,0.00,0,Wunderground v.1.15,2014-11-24 13:10:00,
2014-11-24 07:15:00,34.4,27.6,29.66,West,265,5.0,15.0,76,0.00,,,0.00,7,Wunderground v.1.15,2014-11-24 13:15:00,
2014-11-24 07:21:00,34.4,27.9,29.66,WNW,284,7.0,7.0,77,0.00,,,0.00,7,Wunderground v.1.15,2014-11-24 13:21:00,
2014-11-24 07:27:00,34.4,27.9,29.66,WSW,258,6.0,10.0,77,0.00,,,0.00,7,Wunderground v.1.15,2014-11-24 13:27:00,
2014-11-24 07:33:00,34.4,27.9,29.67,West,265,6.0,8.0,77,0.00,,,0.00,7,Wunderground v.1.15,2014-11-24 13:33:00,
2014-11-24 07:38:00,34.5,28.0,29.67,West,270,7.0,9.0,77,0.00,,,0.00,11,Wunderground v.1.15,2014-11-24 13:38:00,
2014-11-24 07:44:00,34.6,28.1,29.67,West,279,7.0,12.0,77,0.00,,,0.00,14,Wunderground v.1.15,2014-11-24 13:44:00,
2014-11-24 07:50:00,34.7,28.2,29.67,WNW,284,8.0,17.0,77,0.00,,,0.00,25,Wunderground v.1.15,2014-11-24 13:50:00,
2014-11-24 07:55:00,34.9,28.4,29.67,West,277,9.0,15.0,77,0.00,,,0.00,19,Wunderground v.1.15,2014-11-24 13:55:00,
2014-11-24 08:01:00,35.0,28.5,29.68,West,277,9.0,9.0,77,0.00,,,0.00,42,Wunderground v.1.15,2014-11-24 14:01:00,
2014-11-24 08:06:00,35.1,28.3,29.68,West,267,8.0,15.0,76,0.00,,,0.00,51,Wunderground v.1.15,2014-11-24 14:06:00,
2014-11-24 08:11:00,35.2,28.4,29.68,West,271,9.0,9.0,76,0.00,,,0.00,33,Wunderground v.1.15,2014-11-24 14:11:00,
2014-11-24 08:17:00,35.2,28.1,29.69,West,273,9.0,15.0,75,0.00,,,0.00,32,Wunderground v.1.15,2014-11-24 14:17:00,
2014-11-24 08:22:00,35.3,28.2,29.69,WNW,289,7.0,13.0,75,0.00,,,0.00,30,Wunderground v.1.15,2014-11-24 14:22:00,
2014-11-24 08:28:00,35.2,28.1,29.70,WNW,284,7.0,13.0,75,0.00,,,0.00,32,Wunderground v.1.15,2014-11-24 14:28:00,
2014-11-24 08:34:00,35.2,28.1,29.70,West,280,9.0,9.0,75,0.00,,,0.00,33,Wunderground v.1.15,2014-11-24 14:34:00,
2014-11-24 08:40:00,35.2,28.1,29.70,West,259,8.0,15.0,75,0.00,,,0.00,33,Wunderground v.1.15,2014-11-24 14:40:00,
2014-11-24 08:45:00,35.2,28.1,29.71,WNW,296,7.0,10.0,75,0.00,,,0.00,54,Wunderground v.1.15,2014-11-24 14:45:00,
2014-11-24 08:51:00,35.1,28.0,29.71,WNW,296,9.0,16.0,75,0.00,,,0.00,90,Wunderground v.1.15,2014-11-24 14:51:00,
2014-11-24 08:56:00,35.3,28.2,29.71,West,280,9.0,16.0,75,0.00,,,0.00,113,Wunderground v.1.15,2014-11-24 14:56:00,
2014-11-24 09:02:00,35.4,27.9,29.72,West,259,7.0,14.0,74,0.00,,,0.00,100,Wunderground v.1.15,2014-11-24 15:02:00,
2014-11-24 09:07:00,35.5,28.0,29.72,West,280,9.0,14.0,74,0.00,,,0.00,90,Wunderground v.1.15,2014-11-24 15:07:00,
2014-11-24 09:12:00,35.5,28.0,29.72,WNW,282,9.0,14.0,74,0.00,,,0.00,86,Wunderground v.1.15,2014-11-24 15:12:00,
2014-11-24 09:18:00,35.4,27.9,29.73,West,263,9.0,14.0,74,0.00,,,0.00,83,Wunderground v.1.15,2014-11-24 15:18:00,
2014-11-24 09:23:00,35.5,28.0,29.73,WNW,292,8.0,16.0,74,0.00,,,0.00,79,Wunderground v.1.15,2014-11-24 15:23:00,
2014-11-24 09:29:00,35.5,28.0,29.74,West,273,9.0,16.0,74,0.00,,,0.00,77,Wunderground v.1.15,2014-11-24 15:29:00,
2014-11-24 09:35:00,35.5,28.0,29.74,WNW,292,8.0,15.0,74,0.00,,,0.00,79,Wunderground v.1.15,2014-11-24 15:35:00,
2014-11-24 09:40:00,35.6,27.8,29.74,WNW,286,10.0,15.0,73,0.00,,,0.00,81,Wunderground v.1.15,2014-11-24 15:40:00,
2014-11-24 09:47:00,35.6,27.8,29.75,West,273,9.0,14.0,73,0.00,,,0.00,84,Wunderground v.1.15,2014-11-24 15:47:00,
2014-11-24 09:53:00,35.6,27.5,29.75,WNW,294,10.0,10.0,72,0.00,,,0.00,86,Wunderground v.1.15,2014-11-24 15:53:00,
2014-11-24 09:58:00,35.7,27.9,29.75,WSW,254,10.0,13.0,73,0.00,,,0.00,105,Wunderground v.1.15,2014-11-24 15:58:00,
2014-11-24 10:03:00,35.8,28.0,29.75,WNW,288,10.0,11.0,73,0.00,,,0.00,84,Wunderground v.1.15,2014-11-24 16:03:00,
2014-11-24 10:09:00,35.9,28.1,29.76,WNW,292,10.0,14.0,73,0.00,,,0.00,70,Wunderground v.1.15,2014-11-24 16:09:00,
2014-11-24 10:15:00,35.9,28.1,29.75,West,267,8.0,16.0,73,0.00,,,0.00,65,Wunderground v.1.15,2014-11-24 16:15:00,
2014-11-24 10:20:00,35.9,28.1,29.76,WNW,295,8.0,16.0,73,0.00,,,0.00,69,Wunderground v.1.15,2014-11-24 16:20:00,
2014-11-24 10:25:00,35.9,28.1,29.76,WNW,292,7.0,11.0,73,0.00,,,0.00,81,Wunderground v.1.15,2014-11-24 16:25:00,
2014-11-24 10:31:00,36.0,28.2,29.76,West,279,7.0,15.0,73,0.00,,,0.00,84,Wunderground v.1.15,2014-11-24 16:31:00,
2014-11-24 10:37:00,36.1,28.3,29.76,WNW,302,8.0,15.0,73,0.00,,,0.00,88,Wunderground v.1.15,2014-11-24 16:37:00,
2014-11-24 10:44:00,36.2,28.0,29.77,West,278,8.0,10.0,72,0.00,,,0.00,95,Wunderground v.1.15,2014-11-24 16:44:00,
2014-11-24 10:49:00,36.3,28.1,29.77,WNW,285,9.0,10.0,72,0.00,,,0.00,84,Wunderground v.1.15,2014-11-24 16:49:00,
2014-11-24 10:55:00,36.5,28.3,29.78,WNW,295,7.0,15.0,72,0.00,,,0.00,88,Wunderground v.1.15,2014-11-24 16:55:00,
2014-11-24 11:01:00,36.4,27.9,29.78,West,281,8.0,9.0,71,0.00,,,0.00,79,Wunderground v.1.15,2014-11-24 17:01:00,
2014-11-24 11:06:00,36.5,28.0,29.78,WNW,286,10.0,13.0,71,0.00,,,0.00,84,Wunderground v.1.15,2014-11-24 17:06:00,
2014-11-24 11:11:00,36.5,28.0,29.78,WNW,291,10.0,10.0,71,0.00,,,0.00,72,Wunderground v.1.15,2014-11-24 17:11:00,
2014-11-24 11:18:00,36.5,28.0,29.78,West,279,10.0,14.0,71,0.00,,,0.00,69,Wunderground v.1.15,2014-11-24 17:18:00,
2014-11-24 11:23:00,36.6,28.4,29.79,WNW,286,7.0,9.0,72,0.00,,,0.00,76,Wunderground v.1.15,2014-11-24 17:23:00,
2014-11-24 11:29:00,36.6,28.1,29.79,West,277,8.0,22.0,71,0.00,,,0.00,77,Wunderground v.1.15,2014-11-24 17:29:00,
2014-11-24 11:34:00,36.4,27.5,29.79,WSW,256,11.0,14.0,70,0.00,,,0.00,79,Wunderground v.1.15,2014-11-24 17:34:00,
2014-11-24 11:40:00,36.4,27.5,29.79,West,280,11.0,18.0,70,0.00,,,0.00,79,Wunderground v.1.15,2014-11-24 17:40:00,
2014-11-24 11:46:00,36.5,28.0,29.79,West,271,10.0,11.0,71,0.00,,,0.00,77,Wunderground v.1.15,2014-11-24 17:46:00,
2014-11-24 11:51:00,36.4,27.9,29.80,WNW,282,9.0,15.0,71,0.00,,,0.00,69,Wunderground v.1.15,2014-11-24 17:51:00,
2014-11-24 11:57:00,36.4,27.9,29.80,West,273,8.0,15.0,71,0.00,,,0.00,77,Wunderground v.1.15,2014-11-24 17:57:00,
2014-11-24 12:02:00,36.5,28.0,29.80,WSW,251,8.0,13.0,71,0.00,,,0.00,81,Wunderground v.1.15,2014-11-24 18:02:00,
2014-11-24 12:07:00,36.5,28.3,29.80,West,279,8.0,13.0,72,0.00,,,0.00,111,Wunderground v.1.15,2014-11-24 18:07:00,
2014-11-24 12:12:00,36.6,28.1,29.80,WNW,298,9.0,18.0,71,0.00,,,0.00,125,Wunderground v.1.15,2014-11-24 18:12:00,
2014-11-24 12:18:00,36.6,28.1,29.80,WNW,290,10.0,18.0,71,0.00,,,0.00,135,Wunderground v.1.15,2014-11-24 18:18:00,
2014-11-24 12:24:00,36.8,28.3,29.81,WSW,257,8.0,15.0,71,0.00,,,0.00,139,Wunderground v.1.15,2014-11-24 18:24:00,
2014-11-24 12:30:00,36.7,27.8,29.81,WNW,300,11.0,15.0,70,0.00,,,0.00,118,Wunderground v.1.15,2014-11-24 18:30:00,
2014-11-24 12:36:00,36.7,27.8,29.81,West,281,12.0,16.0,70,0.00,,,0.00,107,Wunderground v.1.15,2014-11-24 18:36:00,
2014-11-24 12:41:00,36.8,27.9,29.81,WNW,284,9.0,10.0,70,0.00,,,0.00,114,Wunderground v.1.15,2014-11-24 18:41:00,
2014-11-24 12:47:00,36.9,28.4,29.81,WNW,292,9.0,10.0,71,0.00,,,0.00,267,Wunderground v.1.15,2014-11-24 18:47:00,
2014-11-24 12:53:00,37.3,28.8,29.81,West,275,9.0,13.0,71,0.00,,,0.00,188,Wunderground v.1.15,2014-11-24 18:53:00,
2014-11-24 12:58:00,37.3,28.1,29.82,West,259,11.0,16.0,69,0.00,,,0.00,107,Wunderground v.1.15,2014-11-24 18:58:00,
2014-11-24 13:04:00,37.1,28.2,29.82,WSW,238,10.0,10.0,70,0.00,,,0.00,97,Wunderground v.1.15,2014-11-24 19:04:00,
2014-11-24 13:09:00,37.0,27.8,29.82,West,280,10.0,14.0,69,0.00,,,0.00,98,Wunderground v.1.15,2014-11-24 19:09:00,
2014-11-24 13:15:00,36.9,28.0,29.82,West,273,12.0,16.0,70,0.00,,,0.00,114,Wunderground v.1.15,2014-11-24 19:15:00,
2014-11-24 13:21:00,36.9,28.0,29.82,West,268,11.0,11.0,70,0.00,,,0.00,130,Wunderground v.1.15,2014-11-24 19:21:00,
2014-11-24 13:27:00,37.1,28.2,29.83,West,271,9.0,15.0,70,0.00,,,0.00,111,Wunderground v.1.15,2014-11-24 19:27:00,
2014-11-24 13:33:00,37.1,28.2,29.83,West,275,8.0,10.0,70,0.00,,,0.00,113,Wunderground v.1.15,2014-11-24 19:33:00,
2014-11-24 13:38:00,37.1,27.9,29.84,West,267,8.0,15.0,69,0.00,,,0.00,141,Wunderground v.1.15,2014-11-24 19:38:00,
2014-11-24 13:44:00,37.1,28.2,29.84,WNW,290,10.0,14.0,70,0.00,,,0.00,118,Wunderground v.1.15,2014-11-24 19:44:00,
2014-11-24 13:50:00,37.2,28.0,29.84,WNW,283,8.0,17.0,69,0.00,,,0.00,90,Wunderground v.1.15,2014-11-24 19:50:00,
2014-11-24 13:55:00,37.2,28.3,29.84,West,263,8.0,12.0,70,0.00,,,0.00,83,Wunderground v.1.15,2014-11-24 19:55:00,
2014-11-24 14:01:00,37.2,28.0,29.85,West,280,8.0,8.0,69,0.00,,,0.00,90,Wunderground v.1.15,2014-11-24 20:01:00,